Regional Weather Roundup
Issued by NWS

Home | Current Version | Previous Version | Text Only | Print | Product List | Glossary Off
Versions: 1 2 3 4 5 6 7 8 9 10 11 12 13 14 15 16 17 18 19 20 21 22 23 24 25 26 27

000
ASUS45 KBOI 041010
RWRID

IDAHO REGIONAL WEATHER ROUNDUP
NATIONAL WEATHER SERVICE BOISE ID
300 AM MST SUN DEC 04 2016

NOTE: "FAIR" INDICATES FEW OR NO CLOUDS BELOW 12000 FEET
WITH NO SIGNIFICANT WEATHER AND/OR OBSTRUCTIONS TO VISIBILITY

IDZ012-014-041100-
SOUTHWEST IDAHO


CITY           SKY/WX    TMP DP  RH WIND       PRES   REMARKS
BOISE          CLOUDY    39  28  64 SE8       30.12F WCI  33
CALDWELL       CLOUDY    35  28  75 E5        30.13F WCI  31
MOUNTAIN HOME  MOCLDY    31  28  88 E9        30.12F WCI  23
$$

IDZ016-017-041100-
SOUTHCENTRAL IDAHO


CITY           SKY/WX    TMP DP  RH WIND       PRES   REMARKS
BURLEY         MOCLDY    33  20  58 SW16      30.12F WCI  23
JEROME         PTCLDY    29  21  72 SE6       30.14F WCI  23
TWIN FALLS     MOCLDY    35  17  47 S10       30.13F WCI  27
$$

IDZ019>023-041100-
SOUTHEAST IDAHO


CITY           SKY/WX    TMP DP  RH WIND       PRES   REMARKS
IDAHO FALLS    CLOUDY    31  23  72 SW18      30.10F WCI  19
POCATELLO      CLOUDY    35  23  61 S17G24    30.12S WCI  25
REXBURG        CLOUDY    26  23  88 NW3       30.09F
$$

IDZ006-010-011-018-031-032-041100-
CENTRAL IDAHO MOUNTAINS


CITY           SKY/WX    TMP DP  RH WIND       PRES   REMARKS
MCCALL         FLURRIES  28  24  85 CALM      30.02F
HAILEY         PTCLDY    21  18  86 NW8       30.11F WCI  12
STANLEY          N/A     22  18  85 S5        30.05F WCI  16
SALMON         CLOUDY    27  18  69 SW3       30.03F
CHALLIS        CLOUDY    24  19  81 NW6       30.01F WCI  17
$$

IDZ002-004-006-007-026-041100-
NORTHERN IDAHO


CITY           SKY/WX    TMP DP  RH WIND       PRES   REMARKS
LEWISTON       CLOUDY    44  32  62 S9        29.99F
LOWELL           N/A     36  34  92 CALM      30.08F
COEUR D`ALENE  CLOUDY    38  32  79 N5        29.88F WCI  34
MULLAN PASS    SNOW      24  22  91 VRB7      29.80F VSB 1/2 WCI  16
$$




USA.gov is the U.S. government's official web portal to all federal, state and local government web resources and services.